Home   Weather   Porto Alegre   Past weeks

Flag for Brazil Past Weather in Porto Alegre, Rio Grande do Sul, Brazil — Yesterday and Last 2 Weeks

Now
79 °F

Passing clouds.


Feels Like: 81 °F
Forecast: 74 / 86 °F
Wind: 8 mph from Southeast

Location: Porto Alegre Aero-Porto

Current Time: Feb 24, 2017 at 10:01:05 pm

Latest Report: Feb 24, 2017 at 9:00 pm


Visibility: N/A

Pressure: 29.86 "Hg

Humidity: 74%

Dew Point: 70 °F

Location of Porto AlegreLocation

Past Weather in Porto Alegre — Graph

°F

Porto Alegre Temperature Yesterday

Maximum temperature yesterday: 88 °F (at 3:00 pm)
Minimum temperature yesterday: 73 °F (at 3:00 am)
Average temperature yesterday: 79 °F

High & Low Weather Summary for the Past Weeks

 TemperatureHumidityPressure
High97 °F (Feb 18, 3:00 pm)100% (Feb 14, 4:00 am)30.07 "Hg (Feb 14, 4:00 am)
Low46 °F (Feb 15, 6:27 pm)41% (Feb 18, 7:00 pm)29.65 "Hg (Feb 12, 5:00 pm)
Average80 °F79%29.88 "Hg
* Reported Feb 9 9:00 pm — Feb 24 8:00 pm, Porto Alegre, Weather by CustomWeather, © 2017

Note: Actual official high and low records may vary slightly from our data, if they occured in-between our weather recording intervals... More about our weather records

Advertising

Porto Alegre Weather History for the Previous 24 Hours

Scroll right to see more
 ConditionsComfort  
Time TempWeatherWind HumidityBarometerVisibility
8:00 pm
Fri, Feb 24
79 °FPassing clouds.10 mph79%29.86 "HgN/A
7:00 pm82 °FPassing clouds.10 mph70%29.83 "HgN/A
6:00 pm84 °FScattered clouds.13 mph66%29.83 "HgN/A
5:00 pm86 °FScattered clouds.12 mph62%29.83 "HgN/A
4:00 pm88 °FPartly sunny.7 mph59%29.83 "HgN/A
3:00 pm86 °FScattered clouds.12 mph59%29.83 "HgN/A
2:00 pm82 °FPartly sunny.7 mph66%29.86 "HgN/A
1:10 pm82 °FPartly sunny.13 mph70%N/A3 mi
12:00 pm86 °FPartly sunny.7 mph66%29.86 "HgN/A
11:00 am84 °FBroken clouds.5 mph70%29.86 "HgN/A
10:00 am82 °FBroken clouds.5 mph79%29.89 "HgN/A
9:00 am79 °FPartly sunny.3 mph89%29.89 "HgN/A
8:00 am77 °FPartly sunny.6 mph94%29.86 "Hg4 mi
7:00 am75 °FFog.No wind94%29.86 "Hg3 mi
6:00 am75 °FPassing clouds.3 mph94%29.83 "Hg4 mi
5:00 am75 °FClear.1 mph94%29.83 "Hg10 mi
4:00 am77 °FClear.3 mph94%29.80 "Hg10 mi
3:00 am77 °FClear.6 mph89%29.80 "Hg10 mi
2:00 am77 °FClear.2 mph83%29.83 "Hg10 mi
1:00 am77 °FClear.No wind83%29.83 "Hg10 mi
12:00 am79 °FClear.3 mph79%29.83 "Hg10 mi
11:00 pm
Thu, Feb 23
79 °FClear.6 mph79%29.83 "Hg10 mi
10:00 pm79 °FClear.7 mph79%29.86 "Hg10 mi
Weather by CustomWeather, © 2017

See weather overviewHow to use our weather pages